Location: Castro Valley
(37.6941°N, 122.0863°W)
Time: 11:53:18
(UTC+00:00)

Meteor 1-24 Rocket - Pass Details

Date: 19 May 2025
Orbit: 789 x 925 km, 81.3° (Epoch: 15 June)

Event Time Altitude Azimuth Distance (km) Brightness Sun altitude
Exits shadow 12:08:46 - 214° (SW) 2,664 5.7 -8.8°
Reaches altitude 10° 12:09:10 10° 216° (SW) 2,527 5.6 -8.7°
Maximum altitude 12:14:33 40° 285° (WNW) 1,301 4.4 -7.8°
Drops below altitude 10° 12:20:08 10° 354° (N) 2,612 6.6 -6.9°
Sets 12:22:49 0° 2° (N) 3,568 7.5 -6.5°
